Regional Weather Roundup
Issued by NWS

Home | Current Version | Previous Version | Graphics & Text | Print | Product List | Glossary On
Versions: 1 2 3 4 5 6 7 8 9 10 11 12 13 14 15 16 17 18 19 20 21 22 23 24 25 26 27 28 29 30 31 32 33 34 35 36 37 38 39 40 41 42 43 44 45 46 47 48 49 50
889
ASUS43 KIND 261009
RWRIN

WEATHER ROUNDUP FOR INDIANA
NATIONAL WEATHER SERVICE INDIANAPOLIS IN
600 AM EDT TUE SEP 26 2017

NOTE: "FAIR" INDICATES FEW OR NO CLOUDS BELOW 12,000 FEET WITH NO
SIGNIFICANT WEATHER AND/OR OBSTRUCTIONS TO VISIBILITY.

* - STATION DOES NOT REPORT WEATHER SUCH AS PRECIPITATION OR FOG.

+ - STATION NOT QUALITY CONTROLLED BY THE NATIONAL WEATHER SERVICE.
    USE DATA WITH CAUTION...ESPECIALLY DEWPOINT AND RELATIVE
    HUMIDITY OBSERVATIONS.

INZ001>003-010>013-019-020-261100-
NORTHWEST INDIANA

CITY           SKY/WX    TMP DP  RH WIND       PRES   REMARKS
GARY /AIRPORT/ CLEAR     72  59  64 S7        29.95S
KNOX *+        CLEAR     61  59  94 SE3       29.97R
LA PORTE +     CLEAR     61  58  91 CALM      29.97S
MICHIGAN CITY+ CLEAR     61  61 100 CALM      29.96S
MONTICELLO +   CLEAR     68  65  90 S3        29.97S
RENSSELAER +   MOCLDY    68  59  73 SW7       29.97R
VALPARAISO     CLEAR     64  59  83 CALM      29.97R

$$

LMZ046-743>745-261100-
SOUTHERN LAKE MICHIGAN

STATION/POSITION TIME  TEMP    WIND        PRES    WAVE
                       AIR SEA DIR/SP/G            HT
                 (UTC) (F)     (DEG/KT/KT) (MB)    (FT)
BURNS HARBOR     0940   73     180/  8/ 12 1014.2S
MICHIGAN CITY    0940   73     150/  8/ 10   N/A
5NW MICH CITY    1000   72 71  190/  6/  6   N/A     1

$$

INZ004-005-014>016-021>024-261100-
NORTH CENTRAL INDIANA

CITY           SKY/WX    TMP DP  RH WIND       PRES   REMARKS
GOSHEN         CLEAR     62  58  86 CALM      29.98S
LOGANSPORT +   CLEAR     61  59  94 S3        29.99S
PERU/GRISSOM   CLEAR     65  62  89 S3        29.98S
SOUTH BEND     CLEAR     65  61  87 SE3       29.97S
WARSAW +       CLEAR     61  61 100 CALM      29.99S

$$

INZ006>009-017-018-025>027-261100-
NORTHEAST INDIANA

CITY           SKY/WX    TMP DP  RH WIND       PRES   REMARKS
AUBURN +         N/A     61  59  94 CALM      30.00S FOG
FORT WAYNE     CLEAR     61  58  90 SW3       30.00S
HUNTINGTON +   CLEAR     64  63  96 S3        30.00R
KENDALLVILLE + CLEAR     64  61  91 CALM      30.00S

$$

INZ028-029-035-036-043>045-051>053-261100-
WEST CENTRAL INDIANA

CITY           SKY/WX    TMP DP  RH WIND       PRES   REMARKS
GREENCASTLE +  CLEAR     63  63 100 CALM      30.01R
LAFAYETTE      CLEAR     66  64  93 CALM      29.97S
TERRE HAUTE    CLEAR     65  62  90 CALM      29.98S

$$

INZ030>032-037>040-046>048-054>057-064-065-261100-
CENTRAL INDIANA

CITY           SKY/WX    TMP DP  RH WIND       PRES   REMARKS
CP ATTERBURY + CLEAR     61  59  94 CALM      30.01S
FISHERS *+     CLEAR     63  63 100 SE3       30.00S
FRANKFORT +    CLOUDY    64  62  94 CALM      30.01S
GREENWOOD *+   CLEAR     70  66  87 CALM      30.01R
INDIANAPOLIS   CLEAR     68  63  84 SE3       30.00R
-EAGLE CREEK   CLEAR     67  63  87 CALM      29.99S
KOKOMO +       CLEAR     65  61  87 S3        30.00S
MT COMFORT *+  CLEAR     61  61 100 CALM      30.01S
SHELBYVILLE    CLEAR     64  60  87 CALM      30.00S
ZIONSVILLE +   CLEAR     62  61  97 CALM      30.01S

$$

INZ033-034-041-042-049-050-058-059-261100-
EAST CENTRAL INDIANA

CITY           SKY/WX    TMP DP  RH WIND       PRES   REMARKS
MUNCIE         CLEAR     70  62  76 S3        30.01R
RICHMOND +     CLEAR     61  59  94 CALM      30.04S

$$

INZ060-061-067>069-081>083-085>088-261100-
SOUTHWEST INDIANA

CITY           SKY/WX    TMP DP  RH WIND       PRES   REMARKS
EVANSVILLE     CLEAR     67  66  97 CALM      29.98S FOG
HUNTINGBURG +  CLEAR     66  65  96 CALM      29.99R
WASHINGTON +   CLEAR     63  61  94 CALM      29.98S

$$

INZ062-063-066-070>080-084-089>092-261100-
SOUTH CENTRAL AND SOUTHEAST INDIANA

CITY           SKY/WX    TMP DP  RH WIND       PRES   REMARKS
BEDFORD +      CLEAR     64  63  94 CALM      29.99S FOG
BLOOMINGTON    CLEAR     65  61  87 CALM      30.00S
MADISON *+     CLEAR     63  61  94 CALM      30.03S
NORTH VERNON + CLEAR     61  59  94 CALM      30.01S
SEYMOUR +      FOG       63  63 100 CALM      30.00S VSB 1/4

$$





USA.gov is the U.S. government's official web portal to all federal, state and local government web resources and services.